TJS-4

Last updated on Tue Sep 22 2026 00:03:15 GMT+0000 (Coordinated Universal Time)

1 44637U 19070A 26264.62897139 -.00000174 00000+0 00000+0 0 9997 2 44637 0.0652 93.2334 0003212 158.8044 58.4337 1.00273809 25503
UTC large
Height (km)
Speed (km/s)
/
Latitude / Longitude
Inclination (degrees)
Orbital Period (minutes)
Azimuth
Elevation
Range (km)
Doppler Factor

Next 0 passes for location: London (51.5072 / 0.1276)

No passes found over London.
TJS-4